LOT3PCY EPWA-LOWW

Flight info

Callsign LOT3PCY
Flight time N/A
Altitude 34000
Route EVINA N744 TUSIN DCT MIKOV MIKOV8W
Aircraft B38M/M-SDE1FGHILORVWXY/HB1

Departure

Time N/A
Airport Warsaw Chopin Airport (EPWA)

Arrival

Time 2026-04-24 19:15
Airport Vienna International Airport (LOWW)
Time Latitude Longitude Altitude Speed Heading
2026-04-24 18:54 48.97985 16.96815 21530 ft 370 kts 233°
2026-04-24 18:55 48.94689 16.90920 20667 ft 364 kts 234°
2026-04-24 18:55 48.93044 16.87984 20235 ft 363 kts 233°
2026-04-24 18:55 48.91405 16.85059 19804 ft 364 kts 233°
2026-04-24 18:56 48.89757 16.82122 19365 ft 364 kts 234°
2026-04-24 18:56 48.88132 16.79228 18917 ft 364 kts 233°
2026-04-24 18:56 48.86485 16.76298 18479 ft 364 kts 234°
2026-04-24 18:56 48.84847 16.73387 18015 ft 361 kts 234°
2026-04-24 18:57 48.83022 16.70832 17925 ft 354 kts 215°
2026-04-24 18:57 48.80744 16.69497 17859 ft 351 kts 194°
2026-04-24 18:57 48.78290 16.69159 17732 ft 363 kts 181°
2026-04-24 18:57 48.76597 16.69173 17646 ft 367 kts 182°
2026-04-24 18:58 48.74021 16.69171 17530 ft 372 kts 182°
2026-04-24 18:58 48.71424 16.69153 17422 ft 370 kts 182°
2026-04-24 18:58 48.68876 16.69132 17032 ft 366 kts 182°
2026-04-24 18:58 48.66330 16.69105 16520 ft 361 kts 182°
2026-04-24 18:59 48.63851 16.69080 16007 ft 352 kts 182°
2026-04-24 18:59 48.61423 16.69055 15490 ft 344 kts 182°
2026-04-24 18:59 48.59070 16.69028 14989 ft 338 kts 182°
2026-04-24 18:59 48.56734 16.68885 14444 ft 334 kts 189°
2026-04-24 19:00 48.54424 16.68505 13836 ft 334 kts 188°
2026-04-24 19:00 48.52113 16.68147 13137 ft 332 kts 188°
2026-04-24 19:00 48.49828 16.67808 12463 ft 330 kts 188°
2026-04-24 19:00 48.47550 16.67478 11800 ft 327 kts 188°
2026-04-24 19:01 48.45291 16.67154 11148 ft 324 kts 188°
2026-04-24 19:01 48.43059 16.66811 10521 ft 322 kts 188°
2026-04-24 19:01 48.40838 16.66469 9889 ft 319 kts 188°
2026-04-24 19:01 48.38632 16.66130 9199 ft 317 kts 189°
2026-04-24 19:02 48.36446 16.65797 8508 ft 313 kts 189°
2026-04-24 19:02 48.34352 16.65480 8326 ft 294 kts 189°
2026-04-24 19:02 48.32366 16.65180 8273 ft 280 kts 190°
2026-04-24 19:02 48.30467 16.64890 8204 ft 275 kts 190°
2026-04-24 19:03 48.28505 16.64591 8101 ft 289 kts 190°
2026-04-24 19:03 48.26484 16.64285 7987 ft 292 kts 190°
2026-04-24 19:03 48.24475 16.63981 8018 ft 294 kts 190°
2026-04-24 19:03 48.22434 16.63672 8015 ft 295 kts 190°
2026-04-24 19:04 48.20383 16.63597 7898 ft 300 kts 174°
2026-04-24 19:04 48.18454 16.64761 7661 ft 301 kts 144°
2026-04-24 19:04 48.17087 16.67058 7514 ft 293 kts 119°
2026-04-24 19:04 48.16159 16.69808 7134 ft 299 kts 116°
2026-04-24 19:05 48.15227 16.72619 6729 ft 303 kts 116°
2026-04-24 19:05 48.14281 16.75473 6309 ft 310 kts 116°
2026-04-24 19:05 48.13310 16.78406 5840 ft 314 kts 115°
2026-04-24 19:05 48.12338 16.81341 5339 ft 316 kts 115°
2026-04-24 19:06 48.11358 16.84292 4859 ft 314 kts 115°
2026-04-24 19:06 48.10408 16.87148 4379 ft 304 kts 115°
2026-04-24 19:06 48.09483 16.89930 4052 ft 289 kts 115°
2026-04-24 19:06 48.08626 16.92579 4014 ft 281 kts 109°
2026-04-24 19:07 48.08341 16.95414 3977 ft 273 kts 80°
2026-04-24 19:07 48.08917 16.98007 3984 ft 264 kts 52°
2026-04-24 19:07 48.10203 16.99867 3989 ft 255 kts 24°
2026-04-24 19:07 48.11885 17.00360 3986 ft 247 kts 349°
2026-04-24 19:08 48.13390 16.99266 3984 ft 244 kts 314°
2026-04-24 19:08 48.14148 16.97011 3975 ft 250 kts 280°
2026-04-24 19:08 48.13892 16.94437 3716 ft 259 kts 246°
2026-04-24 19:08 48.12642 16.92458 3405 ft 268 kts 213°
2026-04-24 19:09 48.10980 16.91325 3157 ft 256 kts 205°
2026-04-24 19:09 48.09371 16.90330 2999 ft 249 kts 205°
2026-04-24 19:09 48.07829 16.89322 3002 ft 233 kts 212°
2026-04-24 19:09 48.06545 16.87950 3020 ft 222 kts 224°
2026-04-24 19:10 48.05387 16.86449 3031 ft 218 kts 225°
2026-04-24 19:10 48.04255 16.84936 3013 ft 227 kts 230°
2026-04-24 19:10 48.03637 16.82929 2950 ft 205 kts 273°
2026-04-24 19:10 48.03794 16.80851 3055 ft 201 kts 285°
2026-04-24 19:11 48.04139 16.78842 3039 ft 199 kts 291°
2026-04-24 19:11 48.04635 16.76933 3019 ft 192 kts 297°
2026-04-24 19:11 48.05191 16.75156 3013 ft 188 kts 299°
2026-04-24 19:11 48.05766 16.73393 2863 ft 188 kts 299°
2026-04-24 19:12 48.06330 16.71662 2645 ft 185 kts 299°
2026-04-24 19:12 48.06871 16.69996 2428 ft 170 kts 300°
2026-04-24 19:12 48.07361 16.68490 2225 ft 153 kts 300°
2026-04-24 19:12 48.07799 16.67143 2046 ft 135 kts 300°
2026-04-24 19:13 48.08068 16.66314 1950 ft 133 kts 300°
2026-04-24 19:13 48.08601 16.64675 1700 ft 131 kts 300°
2026-04-24 19:13 48.09002 16.63440 1494 ft 132 kts 298°
2026-04-24 19:13 48.09406 16.62198 1316 ft 134 kts 298°
2026-04-24 19:14 48.09811 16.60949 1129 ft 133 kts 297°
2026-04-24 19:14 48.10216 16.59707 953 ft 133 kts 297°
2026-04-24 19:14 48.10620 16.58456 770 ft 133 kts 298°
2026-04-24 19:14 48.11014 16.57210 624 ft 138 kts 298°
2026-04-24 19:15 48.11497 16.55812 644 ft 154 kts 296°
2026-04-24 19:15 48.12192 16.53697 587 ft 65 kts 288°
2026-04-24 19:15 48.12306 16.53523 588 ft 10 kts 37°
2026-04-24 19:16 48.12335 16.53554 587 ft 0 kts 30°
2026-04-24 19:16 48.12336 16.53555 587 ft 1 kts 30°
2026-04-24 19:17 48.12360 16.53579 587 ft 7 kts 42°
2026-04-24 19:17 48.12373 16.53683 585 ft 17 kts 102°
2026-04-24 19:17 48.12305 16.53911 585 ft 31 kts 116°
2026-04-24 19:17 48.12204 16.54236 588 ft 35 kts 114°
2026-04-24 19:18 48.12095 16.54563 593 ft 31 kts 121°
2026-04-24 19:18 48.12034 16.54739 594 ft 23 kts 116°
2026-04-24 19:18 48.11947 16.55010 596 ft 35 kts 116°
2026-04-24 19:18 48.11828 16.55379 596 ft 44 kts 115°
2026-04-24 19:19 48.11712 16.55733 602 ft 37 kts 115°
2026-04-24 19:19 48.11604 16.56064 604 ft 34 kts 116°
2026-04-24 19:19 48.11500 16.56383 601 ft 34 kts 115°
2026-04-24 19:19 48.11419 16.56634 603 ft 18 kts 115°
2026-04-24 19:20 48.11406 16.56675 603 ft 8 kts 115°
2026-04-24 19:20 48.11363 16.56803 613 ft 18 kts 117°
2026-04-24 19:20 48.11346 16.56854 612 ft 0 kts 115°
2026-04-24 19:21 48.11338 16.56878 621 ft 7 kts 115°
2026-04-24 19:21 48.11313 16.56957 620 ft 9 kts 116°
2026-04-24 19:21 48.11278 16.57066 612 ft 17 kts 116°
2026-04-24 19:22 48.11236 16.57195 619 ft 19 kts 109°
2026-04-24 19:22 48.11380 16.57378 610 ft 21 kts 25°
2026-04-24 19:22 48.11520 16.57483 619 ft 23 kts 29°
2026-04-24 19:22 48.11659 16.57534 623 ft 21 kts 352°
2026-04-24 19:23 48.11780 16.57486 618 ft 10 kts 329°
2026-04-24 19:23 48.11811 16.57384 616 ft 12 kts 287°
2026-04-24 19:23 48.11846 16.57244 609 ft 19 kts 298°
2026-04-24 19:23 48.11929 16.57059 603 ft 22 kts 295°
2026-04-24 19:24 48.11996 16.56850 599 ft 11 kts 297°
2026-04-24 19:24 48.12019 16.56788 598 ft 1 kts 321°
2026-04-24 19:24 48.12065 16.56791 598 ft 9 kts 38°